If you wish to contribute or participate in the discussions about articles you are invited to join SKYbrary as a registered user

 Actions

Abu Simbel Airport

From SKYbrary Wiki

HEBL
Airport
ICAO: HEBL – IATA: ABS
Summary
Name Abu Simbel Airport
Region Africa
Territory Egypt EG.gif
Location Abu Simbel, Aswan
Serving Abu Simbel
Elevation 187.757 m
616 ft
616 ft187.757 m
Type medium airport
Coordinates 22° 22' 33.43" N, 31° 36' 42.20" E
Runways
Designator Length Width Surface ROPS
15/33 3000 m9,842.52 ft
45 m147.638 ft
ASP yes/yes


METAR
Observation HEBL 140300Z 33005KT CAVOK 11/01 Q1020 NOSIG
Station ABU SIMBEL (RUIN
Date/Time 14 December 2018 03:00:00
Wind direction 330°
Wind speed 05 kts
Lowest cloud amount clouds and visibility OK
Temperature 11°C
Dew point 1°C
Humidity 50%
QNH 1020 hPa
Weather condition n/a

Maps

Terrain

Loading map...

Airport Layout

Loading map...


Accidents & Serious Incidents at or in vicinity of HEBL

None on SKYbrary